Regional Weather Roundup
Issued by NWS

Home | Current Version | Previous Version | Text Only | Print | Product List | Glossary On
Versions: 1 2 3 4 5 6 7 8 9 10 11 12 13 14 15 16 17 18 19 20 21 22 23 24 25 26 27 28 29 30 31 32 33 34 35 36 37 38 39 40 41 42 43 44 45 46 47 48 49 50
266
ASUS46 KSEW 241610
RWRWA

WASHINGTON REGIONAL WEATHER ROUNDUP
NATIONAL WEATHER SERVICE SEATTLE WA
900 AM PDT TUE MAY 24 2016

NOTE:"FAIR" INDICATES FEW OR NO CLOUDS BELOW 12,000 FEET WITH NO
SIGNIFICANT WEATHER AND/OR OBSTRUCTIONS TO VISIBILITY.

WAZ505-507>509-241700-
SEATTLE, TACOMA, EVERETT, AND VICINITY

CITY           SKY/WX    TMP DP  RH WIND       PRES   REMARKS
EVERETT        CLOUDY    54  48  80 N5        29.98R
BOEING FIELD   CLOUDY    58  51  78 CALM      29.98R
RENTON         CLOUDY    57  50  77 CALM      29.97R
SEATAC AIRPORT CLOUDY    56  52  86 W5        29.98R
JBLM-MCCHORD   CLOUDY    54  54  99 SW6       29.98R
PUYALLUP       CLOUDY    55  54  94 CALM      29.98R
BREMERTON      CLOUDY    55  50  82 CALM      30.00S
JBLM-FT LEWIS  CLOUDY    53  53  99 VRB3      29.98R
TACOMA NARROWS CLOUDY    52  50  93 SW3       29.99R
$$

WAZ001-503-506-510-514-515-241700-
NORTH INTERIOR

CITY           SKY/WX    TMP DP  RH WIND       PRES   REMARKS
BELLINGHAM     CLOUDY    55  50  83 S7        29.96R
FRIDAY HARBOR  CLOUDY    54  50  86 E3        29.97R
EASTSOUND      MOSUNNY   55  50  82 CALM      29.95R
PORT ANGELES   CLOUDY    55  46  71 W6        29.98R
EDIZ HOOK      CLOUDY    53  47  79 W6        29.98S
PORT TOWNSEND  CLOUDY    55  50  82 W6        29.98S
NAS WHIDBEY    CLOUDY    55  50  83 SW9       30.01R
ARLINGTON      CLOUDY    54  45  71 NW6       29.99S
BURLINGTON     CLOUDY    54  50  87 S5        29.98R
$$

WAZ020-022-039-040-504-511-512-241700-
SOUTHWEST INTERIOR

CITY           SKY/WX    TMP DP  RH WIND       PRES   REMARKS
SHELTON        CLOUDY    51  49  92 W7        29.97R
OLYMPIA        PTSUNNY   55  49  80 CALM      29.98S
CHEHALIS       CLOUDY    59  50  72 NW5       29.99S
KELSO          MOSUNNY   57  48  72 NW6       30.03R
VANCOUVER      PTSUNNY   57  49  74 VRB6      29.98R
SCAPPOOSE, OR  CLOUDY    58  48  69 VRB3      29.98R
PORTLAND, OR   PTSUNNY   59  49  69 NW10      29.99R
$$

WAZ021-516-517-241700-
WASHINGTON COAST

CITY           SKY/WX    TMP DP  RH WIND       PRES   REMARKS
FORKS          CLOUDY    52  50  93 CALM      29.99S
HOQUIAM        PTSUNNY   57  50  77 W8        29.99S HAZE
ASTORIA, OR    CLOUDY    58  51  78 N6        30.00R
$$

WAZ019-023-024-040-518-519-241700-
CASCADE MOUNTAINS AND COLUMBIA GORGE

CITY           SKY/WX    TMP DP  RH WIND       PRES   REMARKS
STAMPEDE PASS  CLOUDY    42  40  92 VRB5      29.94R FOG
TROUTDALE, OR  CLOUDY    58  50  75 VRB3      29.98R
THE DALLES, OR PTSUNNY   65  49  56 NW16      29.89S
$$

WAZ026-027-041>044-520-521-241700-
EAST SLOPES

CITY           SKY/WX    TMP DP  RH WIND       PRES   REMARKS
OMAK           SUNNY     62  44  51 N5        29.88S
WENATCHEE      SUNNY     62  40  44 NW13      29.88S
ELLENSBURG     PTSUNNY   61  44  53 NW16      29.88S
YAKIMA         SUNNY     66  41  40 N12       29.89R
$$

WAZ028-034-035-241700-
COLUMBIA BASIN

CITY           SKY/WX    TMP DP  RH WIND       PRES   REMARKS
EPHRATA        MOSUNNY   62  43  49 VRB5      29.87R
MOSES LAKE     MOSUNNY   63  45  51 N8        29.88R
PASCO          SUNNY     63  43  48 VRB3      29.89S
HERMISTON, OR  SUNNY     61  46  57 VRB6      29.90R
$$

WAZ036>038-241700-
NORTHEAST WASHINGTON

CITY           SKY/WX    TMP DP  RH WIND       PRES   REMARKS
SPOKANE GEIGER LGT RAIN  51  45  79 SE6       29.91R
SPOKANE FELTS  CLOUDY    54  46  74 E6        29.92R
FAIRCHILD AFB  CLOUDY    51  46  84 SE5       29.90S
COEURDALENE,ID CLOUDY    50  46  87 CALM      29.90S
DEER PARK      CLOUDY    51  47  86 MISG      29.92R
$$

WAZ029>033-241700-
SOUTHEAST WASHINGTON

CITY           SKY/WX    TMP DP  RH WIND       PRES   REMARKS
PULLMAN        LGT RAIN  52  45  77 E6        29.93R
LEWISTON, ID   CLOUDY    54  48  80 CALM      29.91S
WALLA WALLA    MOSUNNY   59  44  57 S10       29.90S
PENDLETON, OR  MOSUNNY   59  43  55 MISG      29.90S
$$




USA.gov is the U.S. government's official web portal to all federal, state and local government web resources and services.